Location: Wiesbaden
(50.0830°N, 8.2500°E)
Time: 20:05:44
(UTC+02:00)

ISS - Pass Details

Date: 15 July 2019
Orbit: 409 x 418 km, 51.6° (Epoch: 20 July)

Event Time Altitude Azimuth Distance (km) Brightness Sun altitude
Exits shadow 00:47:57 54° 137° (SE) 507 -3.7 -17.6°
Drops below altitude 10° 00:51:00 10° 77° (ENE) 1,484 -0.9 -17.7°
Sets 00:53:07 0° 73° (ENE) 2,346 0.1 -17.8°
